Goodland, KS

12:45 PM MDT on March 26, 2017 (GMT -0600)
Renner-Goodland Municipal

Weather History for KGLD - October, 2011

Change the Weather History Date:

Saturday, October 8, 2011

  Actual Average Record
Temperature  
Mean Temperature 54 °F 55 °F  
Max Temperature 64 °F 69 °F 91 °F (1910)
Min Temperature 43 °F 40 °F 20 °F (2000)
Degree Days  
Heating Degree Days 11 11  
Month to date heating degree days 21 75  
Since 1 July heating degree days 145 199  
Cooling Degree Days 0 0  
Month to date cooling degree days 14 5  
Year to date cooling degree days 1113 938  
Growing Degree Days 4 (Base 50)    
Moisture  
Dew Point 51 °F    
Average Humidity 74    
Maximum Humidity 100    
Minimum Humidity 48    
Precipitation  
Precipitation 0.85 in 0.05 in 0.85 in (2011)
Month to date precipitation 1.54 0.38  
Year to date precipitation 17.99 17.50  
Snow  
Snow 0.00 in 0.00 in - ()
Month to date snowfall 0.0 0.2  
Since 1 July snowfall T 0.6  
Since 1 September snowfall 0.0 0.6  
Snow Depth 0.00 in    
Sea Level Pressure  
Sea Level Pressure 29.86 in    
Wind  
Wind Speed 16 mph (SSE)    
Max Wind Speed 33 mph    
Max Gust Speed 39 mph    
Visibility 9 miles    
Events Rain , Thunderstorm    
T = Trace of Precipitation, MM = Missing Value Source: NWS Daily Summary

Daily Weather History Graph

Daily Weather History Graph

Search for Another Location

Airport or City:

Trip Planner

Search our weather history database for the weather conditions in past years. The results will help you decide how hot, cold, wet, or windy it might be!

Date:

Astronomy

Oct. 08, 2011 Rise Set
Actual Time 6:49 AM MDT 6:18 PM MDT
Civil Twilight 6:22 AM MDT 6:45 PM MDT
Nautical Twilight 5:51 AM MDT 7:16 PM MDT
Astronomical Twilight 5:20 AM MDT 7:47 PM MDT
Moon 4:29 PM MDT (10/8) 3:39 AM MDT (10/8)
Length of Visible Light 12h 22m
Length of Day
11h 29m
Waxing Gibbous, 90% of the Moon is Illuminated
Oct 8
Waxing Gibbous
Oct 11
Full
Oct 19
Last Quarter
Oct 26
New
Nov 2
First Quarter

Hourly Weather History & Observations

Time (MDT) Temp. Windchill Dew Point Humidity Pressure Visibility Wind Dir Wind Speed Gust Speed Precip Events Conditions
12:16 AM 59.0 °F - 55.4 °F 88% 29.82 in 10.0 mi SE 9.2 mph - 0.00 in Rain , Thunderstorm Light Thunderstorms and Rain
12:53 AM 57.0 °F - 57.0 °F 100% 29.78 in 7.0 mi South 17.3 mph - 0.03 in Rain , Thunderstorm Heavy Rain
1:01 AM 57.2 °F - 57.2 °F 100% 29.88 in 4.0 mi South 12.7 mph - 0.05 in Rain , Thunderstorm Heavy Rain
1:16 AM 57.2 °F - 57.2 °F 100% 29.91 in 7.0 mi South 15.0 mph 24.2 mph 0.12 in Rain Heavy Rain
1:31 AM 57.2 °F - 55.4 °F 94% 29.89 in 6.0 mi South 10.4 mph 21.9 mph 0.18 in Rain , Thunderstorm Heavy Rain
1:46 AM 57.2 °F - 55.4 °F 94% 29.87 in 5.0 mi SSE 3.5 mph - 0.27 in Rain Heavy Rain
1:53 AM 55.9 °F - 55.9 °F 100% 29.72 in 5.0 mi NNE 8.1 mph - 0.31 in Rain Rain
2:29 AM 55.4 °F - 55.4 °F 100% 29.90 in 8.0 mi South 8.1 mph - 0.07 in Rain , Thunderstorm Rain
2:53 AM 55.9 °F - 55.0 °F 97% 29.78 in 6.0 mi ESE 5.8 mph - 0.17 in Rain Heavy Rain
3:53 AM 55.0 °F - 54.0 °F 96% 29.74 in 7.0 mi East 16.1 mph - 0.27 in Rain Heavy Rain
4:12 AM 55.4 °F - 55.4 °F 100% 29.82 in 10.0 mi East 19.6 mph 29.9 mph 0.03 in Rain Light Rain
4:53 AM 55.0 °F - 54.0 °F 96% 29.75 in 10.0 mi SE 18.4 mph 24.2 mph 0.07 in Rain Rain
5:53 AM 55.0 °F - 54.0 °F 96% 29.73 in 10.0 mi East 25.3 mph 34.5 mph 0.05 in Rain Rain
6:43 AM 55.4 °F - 53.6 °F 94% 29.79 in 10.0 mi East 17.3 mph 28.8 mph 0.01 in   Scattered Clouds
6:53 AM 55.4 °F - 53.6 °F 94% 29.80 in 10.0 mi ESE 18.4 mph - N/A   Mostly Cloudy
7:17 AM 55.4 °F - 53.6 °F 94% 29.76 in 10.0 mi ESE 21.9 mph 27.6 mph N/A   Scattered Clouds
7:53 AM 55.0 °F - 53.1 °F 93% 29.73 in 10.0 mi ESE 16.1 mph - N/A   Clear
8:23 AM 55.4 °F - 53.6 °F 94% 29.84 in 10.0 mi SE 16.1 mph 25.3 mph N/A   Overcast
8:40 AM 55.4 °F - 53.6 °F 94% 29.85 in 10.0 mi SE 18.4 mph 26.5 mph N/A   Overcast
8:53 AM 55.0 °F - 54.0 °F 96% 29.77 in 10.0 mi SE 17.3 mph 27.6 mph N/A   Overcast
9:00 AM 55.4 °F - 53.6 °F 94% 29.86 in 10.0 mi SE 16.1 mph 25.3 mph N/A   Overcast
9:15 AM 55.4 °F - 53.6 °F 94% 29.87 in 10.0 mi SE 17.3 mph 28.8 mph N/A   Overcast
9:53 AM 55.9 °F - 54.0 °F 93% 29.80 in 10.0 mi SE 19.6 mph 27.6 mph N/A   Overcast
10:53 AM 57.0 °F - 54.0 °F 89% 29.80 in 10.0 mi SSE 23.0 mph 34.5 mph N/A   Overcast
11:01 AM 57.2 °F - 53.6 °F 88% 29.87 in 10.0 mi SE 20.7 mph 28.8 mph N/A   Overcast
11:14 AM 57.2 °F - 53.6 °F 88% 29.87 in 10.0 mi SSE 20.7 mph 31.1 mph N/A   Overcast
11:53 AM 59.0 °F - 51.8 °F 77% 29.86 in 10.0 mi SSE 24.2 mph 32.2 mph N/A   Overcast
12:53 PM 61.0 °F - 52.0 °F 72% 29.80 in 10.0 mi SSE 23.0 mph 29.9 mph N/A   Mostly Cloudy
1:46 PM 60.8 °F - 51.8 °F 72% 29.87 in 10.0 mi SSE 18.4 mph 26.5 mph N/A   Overcast
1:53 PM 61.0 °F - 52.0 °F 72% 29.80 in 10.0 mi SSE 21.9 mph 26.5 mph N/A   Mostly Cloudy
2:53 PM 64.0 °F - 44.1 °F 48% 29.81 in 10.0 mi South 20.7 mph 26.5 mph N/A   Partly Cloudy
3:30 PM 59.0 °F - 46.4 °F 63% 29.91 in 10.0 mi West 15.0 mph 20.7 mph N/A   Mostly Cloudy
3:53 PM 57.9 °F - 45.0 °F 62% 29.86 in 10.0 mi West 13.8 mph - N/A   Partly Cloudy
4:53 PM 54.0 °F - 43.0 °F 66% 29.91 in 10.0 mi West 19.6 mph - N/A   Scattered Clouds
5:53 PM 51.1 °F - 41.0 °F 68% 29.95 in 10.0 mi West 16.1 mph - N/A   Clear
6:53 PM 48.0 °F - 39.9 °F 74% 29.99 in 10.0 mi WSW 8.1 mph - N/A   Clear
7:53 PM 46.0 °F 40.6 °F 39.9 °F 79% 30.00 in 10.0 mi West 11.5 mph - N/A   Clear
8:53 PM 44.1 °F 39.5 °F 39.0 °F 82% 30.03 in 10.0 mi WSW 8.1 mph - N/A   Clear
9:53 PM 43.0 °F 38.2 °F 39.0 °F 86% 30.05 in 10.0 mi WSW 8.1 mph - N/A   Clear
10:48 PM 44.6 °F 39.2 °F 39.2 °F 81% 30.08 in 10.0 mi West 10.4 mph - N/A   Mostly Cloudy
10:53 PM 44.1 °F 38.6 °F 39.9 °F 85% 30.05 in 10.0 mi West 10.4 mph - N/A   Mostly Cloudy
11:53 PM 46.0 °F 41.0 °F 39.9 °F 79% 30.04 in 10.0 mi West 10.4 mph - N/A   Overcast